Wind_Speed
12 12 18 22 23 23 23 23 26 31 34 36 42 47 43 39 27 28 35 33 35 35 30 30 33 33 28 13 18 23 24 21 26 32 30 32 33 38 39 30 15 17 15 45
15 10 8 8 13 18 20 23 22 20 26 36 41 40 39 39 38 37 34 37 42 41 40 35 37 38 36 27 30 23 27 21 16 12 23 27 35 40 43 45 42 45 13 44
16 11 12 8 8 8 13 17 17 24 30 37 35 40 38 27 29 37 44 44 43 41 43 41 42 40 35 34 42 40 36 36 33 32 20 7 18 30 39 47 40 45 54 59
27 19 14 11 8 8 9 12 13 14 20 31 25 22 19 25 33 23 25 37 32 35 36 37 45 46 42 37 36 41 43 50 45 59 59 46 54 54 46 44 52 45 67 45
28 20 20 18 13 12 13 7 11 13 17 15 13 11 9 13 14 11 14 13 14 14 11 12 13 17 14 20 28 44 42 39 30 38 43 34 40 56 58 56 51 55 55 65
32 28 25 23 22 14 13 10 9 5 5 7 8 9 7 5 7 9 8 5 6 8 12 12 14 17 16 15 16 17 20 15 10 12 20 26 32 35 33 39 50 49 42 53
24 32 34 29 27 24 20 17 15 14 12 9 8 9 9 11 8 7 5 5 7 4 8 14 19 20 20 22 22 23 28 26 17 15 15 8 14 12 13 14 14 18 23 24
25 25 30 34 31 28 26 23 21 17 20 16 15 12 14 15 9 8 11 10 12 17 18 18 10 8 8 4 10 12 16 17 12 6 11 21 29 23 22 16 16 19 20 19
26 28 26 26 30 29 26 26 24 23 19 19 14 14 13 16 18 18 15 13 13 14 13 7 3 3 10 4 3 4 9 13 20 17 9 4 3 5 3 18 24 19 23 18
20 27 28 25 25 27 29 26 24 24 24 23 21 18 17 15 14 17 18 17 16 15 13 15 14 12 12 6 6 7 9 13 27 24 10 8 25 31 31 18 19 18 22 19
29 20 21 23 21 23 27 28 26 24 29 24 24 21 23 21 20 18 18 18 20 17 15 10 8 8 9 11 15 9 11 11 10 9 12 12 10 29 29 37 47 42 35 27
20 23 26 22 24 25 23 25 26 26 29 29 26 27 24 24 22 24 20 16 21 14 11 13 11 12 9 9 20 20 12 13 10 12 17 33 38 34 35 34 41 41 39 47
24 20 22 24 23 20 20 18 17 21 25 30 32 30 26 25 24 19 20 23 24 26 24 23 16 16 19 20 19 22 25 27 25 27 30 35 37 42 36 31 32 32 31 31
21 20 19 18 17 18 18 17 17 18 20 24 27 27 24 19 21 24 25 24 26 25 27 26 19 19 16 23 23 27 32 37 41 44 46 45 44 32 29 35 31 27 22 25
15 16 17 18 20 20 18 19 19 19 19 15 15 10 15 20 22 26 29 24 26 29 19 19 23 27 30 31 31 37 35 41 40 40 40 34 32 36 37 36 32 27 23 23
12 13 16 16 17 18 17 18 19 20 21 24 26 24 22 21 15 15 19 25 21 21 22 24 26 31 28 23 34 38 32 36 39 42 38 35 39 39 36 36 28 23 27 25
6 8 12 12 13 13 15 16 15 13 12 17 19 24 29 25 19 17 18 19 23 22 25 29 30 31 27 36 41 37 31 33 30 27 27 30 28 28 29 29 27 26 28 27
8 8 10 10 11 13 15 17 17 14 15 19 12 11 9 17 20 24 22 23 24 27 27 30 29 27 31 38 43 42 38 30 26 21 23 24 26 27 28 30 30 30 30 30
8 9 10 11 11 11 12 11 8 9 13 8 15 12 8 11 14 17 18 20 22 23 25 27 29 32 37 42 38 34 31 32 31 29 29 28 28 29 28 28 28 28 28 27
11 11 11 11 10 9 9 11 11 9 16 19 20 19 17 16 15 14 16 16 16 18 22 22 28 35 33 33 31 30 32 32 31 30 28 26 25 27 27 27 27 26 24 22
17 14 10 8 6 8 9 8 9 12 13 20 25 23 25 24 22 22 16 11 11 11 18 20 14 24 28 27 26 27 28 30 29 28 27 26 26 26 23 22 23 23 22 23
12 15 12 9 7 6 7 7 9 9 11 14 15 14 15 18 19 20 14 18 10 10 15 13 15 28 28 27 26 26 25 25 25 26 26 26 25 22 21 21 22 24 23 22
17 18 16 6 9 11 8 10 9 9 13 14 11 10 11 13 14 12 11 10 12 15 10 12 25 29 29 29 27 26 25 25 24 24 24 23 21 19 19 19 19 19 19 20
19 12 11 8 8 9 14 17 14 17 18 18 18 17 13 17 17 15 8 12 11 8 11 20 27 28 27 25 24 24 23 23 22 20 20 19 19 18 18 18 17 17 17 18
15 13 8 13 16 17 14 13 15 18 21 22 23 23 22 20 14 8 10 6 7 8 11 19 20 21 21 21 21 21 22 23 22 22 22 21 21 21 21 22 23 23 23 23
19 13 12 11 12 15 17 18 19 19 18 16 15 12 8 11 8 9 9 6 7 9 13 13 14 15 17 19 19 20 22 22 23 23 25 26 26 28 29 29 29 31 33 32
15 23 20 17 20 16 16 18 20 21 21 20 16 9 11 8 8 8 8 7 10 10 12 16 19 21 23 24 25 27 27 28 29 31 32 33 34 35 36 36 35 38 39 40
Wind_Direction
233 238 232 232 239 249 246 242 237 237 227 224 231 236 241 244 243 243 233 240 240 241 246 249 250 253 248 246 246 249 250 248 254 262 265 260 255 251 247 235 241 238 251 266
225 220 216 211 228 235 235 234 234 219 218 219 230 238 244 247 248 251 246 244 246 244 245 251 253 251 253 255 251 249 240 238 252 253 249 245 239 246 246 248 248 248 239 260
233 238 219 227 225 223 221 222 219 215 202 216 226 231 229 226 235 240 241 242 246 246 251 254 257 258 258 248 241 239 249 241 246 250 247 243 258 263 256 249 241 250 246 260
262 261 241 222 226 224 210 213 215 205 213 230 233 226 221 220 230 234 222 234 236 241 238 241 244 248 245 241 238 241 243 252 255 257 263 261 262 265 259 253 254 242 261 255
240 242 252 267 239 217 219 210 221 215 221 226 255 257 251 244 263 262 263 263 277 281 256 242 247 239 246 238 239 241 239 243 250 258 263 268 262 262 259 256 259 258 259 263
228 234 238 243 259 249 233 226 240 226 241 259 268 280 285 251 252 290 299 308 287 276 289 264 259 266 271 269 265 271 279 285 285 270 286 297 287 267 269 273 264 259 261 270
223 225 231 236 241 249 249 253 248 236 245 251 280 297 311 311 319 321 329 258 308 289 272 291 294 290 286 281 280 276 272 282 280 270 285 253 271 283 283 283 284 297 287 295
227 227 229 232 238 244 244 245 256 252 252 253 252 257 275 289 295 284 296 300 290 305 312 315 320 315 300 305 284 255 252 251 254 247 236 271 284 277 280 281 275 267 271 265
231 224 226 229 233 235 239 240 244 250 257 254 253 259 263 262 271 273 289 307 314 310 315 249 288 268 288 264 258 244 257 265 245 253 258 250 202 173 300 305 288 279 272 258
239 224 217 222 226 233 238 239 238 239 246 253 258 261 271 263 268 279 290 299 294 291 280 264 273 257 255 253 254 267 270 260 232 241 271 273 276 281 285 281 288 300 279 266
241 229 220 214 221 226 230 238 240 241 251 249 247 255 263 267 269 274 279 285 275 273 256 254 243 251 244 251 255 257 301 307 283 283 274 247 252 308 320 314 309 310 309 309
243 243 235 229 226 220 223 231 236 242 249 257 256 261 255 261 265 271 264 262 267 251 251 241 235 232 225 251 286 291 265 272 271 267 267 288 298 300 306 307 306 312 313 311
233 240 246 245 243 228 222 225 235 242 252 258 258 260 265 260 262 242 264 270 259 258 258 246 235 250 271 275 279 280 279 284 281 296 293 294 296 299 305 299 297 296 302 301
218 224 235 241 234 232 233 235 239 242 249 261 269 263 262 256 253 259 264 258 259 255 243 253 261 266 266 265 267 276 281 285 287 294 290 296 296 300 301 293 290 274 287 301
215 219 221 223 227 231 234 240 239 240 239 252 262 268 261 261 258 257 253 253 238 243 246 246 255 262 268 274 279 278 283 291 293 294 296 288 282 301 301 296 293 273 288 291
216 213 218 221 226 227 230 238 246 244 242 255 272 276 274 268 262 252 242 243 236 233 245 255 263 267 269 271 276 276 284 294 300 295 290 282 289 293 292 292 298 283 289 285
204 175 197 210 219 228 233 245 253 253 248 249 261 264 275 254 242 248 243 235 243 246 255 259 267 276 273 275 275 281 295 295 295 295 289 283 286 292 291 290 289 282 283 284
213 220 233 237 236 238 244 251 256 256 274 238 238 249 242 229 230 243 243 245 251 256 258 266 272 270 272 273 284 281 286 289 294 302 299 296 293 289 287 286 286 282 282 283
229 226 224 232 238 237 243 247 251 245 217 212 231 236 241 224 229 235 245 251 255 258 261 273 268 268 267 282 286 287 283 286 291 293 293 294 295 295 292 290 285 285 285 283
213 219 227 240 241 244 241 234 233 239 227 234 242 244 246 257 255 255 254 253 253 252 268 269 261 269 284 288 291 289 283 286 288 289 291 294 296 295 293 293 292 290 289 287
223 224 231 240 250 244 236 230 210 221 231 248 255 257 257 258 256 260 258 251 254 248 258 245 249 268 290 291 291 288 284 283 285 287 289 290 289 290 291 293 294 291 289 288
226 226 233 241 241 236 223 215 215 220 224 242 247 250 254 253 259 257 256 244 235 235 230 222 248 276 280 282 281 282 280 281 283 285 286 288 287 291 294 294 291 287 285 284
220 226 233 243 228 223 222 217 206 209 228 252 265 267 264 266 261 240 226 225 230 234 219 235 261 271 274 276 278 280 281 282 283 284 285 286 290 295 298 296 294 292 289 288
214 231 225 218 226 226 222 233 242 243 249 262 270 268 259 260 242 233 234 231 227 225 223 239 253 260 264 270 275 278 280 281 282 281 282 287 291 292 294 295 294 293 291 290
218 227 233 235 237 243 250 254 255 256 259 262 267 269 267 259 242 242 233 236 230 232 239 246 253 260 268 274 278 280 280 280 281 283 285 285 286 286 285 287 288 286 285 284
230 231 237 246 248 253 258 261 262 266 268 271 274 267 247 233 226 228 228 235 228 247 262 275 283 286 286 286 288 287 285 284 284 285 284 283 284 284 284 284 286 286 285 283
233 244 252 261 267 273 272 275 279 281 279 271 262 237 229 234 231 230 233 245 267 288 302 305 302 299 296 295 295 293 290 287 285 284 286 287 287 285 285 284 281 280 280 280
Height
3026 3027 3028 3030 3033 3036 3038 3041 3046 3050 3057 3061 3056 3055 3059 3064 3068 3075 3078 3076 3077 3078 3083 3084 3084 3084 3088 3088 3089 3088 3090 3085 3080 3080 3084 3085 3087 3086 3087 3087 3082 3078 3073 3037
3023 3024 3024 3025 3027 3029 3031 3035 3038 3043 3048 3048 3047 3050 3053 3058 3060 3064 3068 3067 3068 3073 3072 3076 3074 3076 3082 3085 3085 3082 3082 3077 3073 3070 3072 3072 3073 3076 3078 3078 3076 3062 3072 3032
3018 3020 3021 3022 3024 3025 3028 3031 3033 3036 3038 3040 3041 3043 3046 3048 3047 3052 3055 3055 3059 3062 3061 3065 3060 3065 3072 3072 3072 3073 3074 3069 3065 3057 3057 3062 3065 3065 3068 3069 3064 3054 3045 3043
3012 3015 3018 3021 3022 3022 3025 3026 3027 3029 3029 3033 3035 3035 3036 3037 3040 3043 3042 3045 3049 3049 3050 3051 3051 3053 3056 3057 3059 3061 3063 3056 3060 3051 3051 3058 3055 3053 3056 3053 3049 3052 3028 3045
3007 3011 3014 3015 3019 3020 3021 3023 3026 3026 3026 3028 3029 3030 3033 3034 3034 3036 3038 3041 3041 3042 3042 3042 3042 3041 3042 3044 3045 3047 3049 3047 3043 3039 3041 3043 3041 3035 3037 3039 3039 3035 3033 3024
3000 3004 3009 3011 3015 3017 3018 3020 3022 3024 3024 3025 3026 3028 3028 3031 3032 3033 3034 3036 3037 3038 3038 3037 3037 3037 3038 3038 3039 3040 3039 3038 3038 3032 3033 3035 3030 3023 3026 3025 3027 3026 3019 3019
2995 2999 3004 3007 3010 3013 3017 3017 3019 3022 3024 3025 3027 3025 3026 3028 3029 3030 3030 3032 3033 3034 3033 3033 3033 3032 3031 3031 3033 3034 3035 3036 3034 3031 3031 3029 3021 3021 3020 3017 3020 3022 3017 3018
2989 2993 2998 3002 3005 3007 3011 3013 3016 3018 3020 3021 3023 3024 3025 3027 3026 3027 3028 3028 3029 3031 3029 3029 3028 3028 3026 3024 3025 3026 3028 3030 3029 3026 3023 3021 3019 3017 3016 3014 3015 3013 3011 3010
2982 2987 2992 2996 2999 3002 3005 3008 3011 3013 3015 3016 3019 3021 3021 3025 3023 3024 3024 3024 3025 3028 3027 3026 3025 3025 3025 3024 3023 3021 3023 3024 3024 3022 3022 3018 3014 3014 3012 3011 3008 3008 3005 3004
2977 2981 2985 2989 2993 2996 2999 3004 3006 3008 3010 3012 3014 3016 3020 3018 3020 3020 3020 3021 3023 3023 3023 3023 3022 3022 3022 3021 3020 3019 3018 3014 3011 3011 3011 3010 3009 3009 3008 3008 3006 3000 2999 2995
2973 2977 2979 2982 2987 2990 2993 2997 3001 3004 3004 3005 3008 3012 3013 3014 3016 3016 3018 3019 3019 3017 3020 3019 3017 3018 3017 3016 3016 3015 3016 3015 3012 3011 3010 3004 3001 3001 3008 3004 2997 2993 2991 2990
2968 2971 2975 2978 2981 2984 2987 2991 2995 2997 2998 3001 3003 3005 3008 3010 3011 3012 3011 3013 3013 3014 3014 3013 3013 3012 3012 3012 3012 3011 3012 3011 3009 3010 3005 3004 2999 2997 2997 2995 2992 2988 2985 2982
2963 2967 2970 2973 2978 2980 2982 2986 2989 2991 2993 2994 2996 2999 3003 3002 3004 3005 3005 3006 3006 3007 3008 3009 3007 3007 3007 3008 3006 3004 3004 3001 3000 2999 2996 2995 2994 2992 2988 2987 2985 2982 2978 2974
2958 2962 2966 2968 2972 2975 2978 2981 2984 2986 2989 2989 2989 2991 2992 2995 2997 2998 2998 2999 3000 3001 3002 2999 3000 3002 3002 3001 3000 3001 2999 2995 2992 2990 2987 2984 2985 2984 2981 2979 2978 2975 2972 2969
2956 2959 2962 2965 2968 2971 2974 2977 2980 2982 2986 2984 2983 2985 2986 2989 2989 2990 2991 2992 2993 2994 2993 2994 2995 2995 2996 2996 2994 2993 2990 2987 2984 2979 2980 2977 2975 2974 2972 2970 2968 2967 2964 2963
2953 2956 2959 2962 2965 2968 2971 2973 2975 2977 2979 2981 2978 2979 2980 2982 2983 2983 2985 2985 2986 2987 2988 2990 2988 2988 2992 2989 2984 2982 2983 2979 2974 2969 2969 2968 2967 2965 2962 2962 2960 2958 2956 2955
2953 2955 2958 2960 2963 2965 2968 2970 2972 2973 2975 2975 2975 2973 2973 2976 2978 2979 2981 2981 2982 2983 2983 2981 2983 2984 2984 2977 2973 2973 2973 2969 2966 2961 2959 2958 2958 2956 2955 2953 2952 2950 2949 2947
2953 2955 2957 2958 2961 2963 2965 2965 2967 2968 2969 2970 2971 2970 2970 2969 2971 2974 2975 2976 2977 2977 2976 2976 2977 2976 2973 2966 2963 2962 2962 2960 2958 2955 2953 2951 2950 2949 2947 2944 2942 2941 2941 2939
2952 2954 2955 2956 2958 2959 2960 2962 2963 2964 2967 2964 2965 2966 2967 2968 2969 2970 2971 2971 2971 2970 2969 2970 2968 2966 2960 2956 2955 2954 2953 2952 2950 2949 2947 2945 2943 2940 2938 2936 2935 2933 2931 2929
2950 2952 2953 2954 2956 2957 2959 2960 2960 2961 2961 2960 2960 2962 2964 2965 2965 2966 2967 2965 2965 2960 2962 2960 2956 2952 2951 2949 2947 2946 2945 2944 2942 2940 2939 2938 2935 2934 2931 2928 2926 2923 2922 2921
2947 2949 2952 2954 2954 2955 2955 2956 2957 2956 2956 2955 2955 2958 2958 2959 2960 2960 2960 2957 2957 2953 2954 2952 2947 2943 2943 2941 2939 2938 2937 2936 2934 2933 2931 2930 2928 2927 2925 2922 2919 2917 2915 2913
2946 2948 2950 2951 2953 2952 2953 2951 2951 2950 2951 2949 2949 2951 2952 2953 2953 2953 2952 2951 2949 2945 2944 2943 2938 2938 2935 2934 2932 2931 2929 2928 2927 2926 2924 2923 2922 2919 2917 2915 2914 2911 2909 2907
2944 2946 2948 2949 2949 2947 2945 2944 2944 2944 2944 2945 2946 2947 2948 2948 2949 2947 2946 2943 2940 2937 2935 2932 2931 2929 2928 2926 2925 2924 2922 2921 2920 2919 2917 2916 2914 2912 2911 2909 2908 2906 2904 2902
2943 2944 2944 2944 2941 2939 2938 2939 2940 2942 2941 2942 2942 2942 2943 2941 2942 2940 2936 2934 2930 2927 2925 2923 2922 2921 2920 2919 2918 2917 2916 2915 2913 2912 2911 2909 2908 2906 2905 2903 2902 2901 2899 2898
2941 2941 2938 2934 2934 2934 2935 2936 2937 2937 2937 2937 2936 2936 2937 2936 2935 2932 2930 2926 2922 2920 2917 2916 2915 2914 2913 2912 2911 2911 2909 2908 2907 2905 2904 2902 2901 2900 2899 2897 2896 2895 2894 2893
2936 2934 2931 2931 2931 2932 2932 2932 2932 2932 2931 2931 2931 2930 2929 2928 2927 2924 2921 2919 2915 2914 2913 2912 2911 2910 2909 2908 2907 2905 2904 2902 2900 2898 2896 2895 2893 2891 2890 2890 2888 2886 2884 2884
2929 2927 2927 2927 2927 2927 2927 2927 2926 2926 2926 2925 2925 2924 2923 2921 2919 2917 2915 2914 2913 2912 2911 2910 2908 2906 2905 2903 2901 2899 2896 2894 2892 2890 2887 2885 2883 2880 2879 2878 2878 2875 2873 2872